{"data":{"norad_id":66875,"epoch":"2026-09-20T15:36:36.041760Z","epoch_age_seconds":71154,"freshness":"FRESH","line1":"1 66875U 25281AD  26263.65041715  .00012002  00000+0  44480-3 0  9995","line2":"2 66875  42.9994 322.3065 0000690 270.5657  89.5115 15.27590205 45946","mean_motion":15.27590205,"eccentricity":6.9e-5,"inclination_deg":42.9994,"raan_deg":322.3065,"arg_perigee_deg":270.5657,"mean_anomaly_deg":89.5115,"bstar":0.0004448,"rev_number":4594,"period_min":94.266118968732,"perigee_km":482.54511903636,"apogee_km":483.49195850071,"semimajor_km":6861.1555387685,"source":"CELESTRAK","updated_at":"2026-09-21T09:00:36.031495Z"}}